| time (UTC) | temp C | wind direction | speed KPH | gust KPH | rain 1hr cm | rain 24hr cm | rain mn cm | humidity % | barometer mb |
| 20260509000352 | 16 | 273 | 3.2 | 6.4 | 0.00 | 0.00 | 0.00 | 44 | 1007.5 |
| 20260508234848 | 17 | 222 | 1.6 | 4.8 | 0.00 | 0.00 | 0.00 | 44 | 1007.4 |
| 20260508233347 | 17 | 263 | 4.8 | 4.8 | 0.00 | 0.00 | 0.00 | 38 | 1007.5 |
| 20260508231844 | 17 | 216 | 9.7 | 12.9 | 0.00 | 0.00 | 0.00 | 36 | 1007.4 |
| 20260508230339 | 17 | 252 | 0.0 | 4.8 | 0.00 | 0.00 | 0.00 | 38 | 1007.4 |
| 20260508224838 | 19 | 150 | 3.2 | 9.7 | 0.00 | 0.00 | 0.00 | 35 | 1007.5 |
| 20260508223335 | 18 | 204 | 3.2 | 6.4 | 0.00 | 0.00 | 0.00 | 38 | 1007.7 |
| 20260508221832 | 18 | 238 | 4.8 | 11.3 | 0.00 | 0.00 | 0.00 | 37 | 1007.7 |
| 20260508220332 | 18 | 171 | 1.6 | 6.4 | 0.00 | 0.00 | 0.00 | 40 | 1007.7 |
| 20260508214829 | 18 | 273 | 3.2 | 4.8 | 0.00 | 0.00 | 0.00 | 39 | 1008.0 |
| 20260508213325 | 20 | 238 | 4.8 | 9.7 | 0.00 | 0.00 | 0.00 | 34 | 1007.8 |
| 20260508211825 | 19 | 36 | 3.2 | 6.4 | 0.00 | 0.00 | 0.00 | 37 | 1008.0 |
| 20260508210321 | 20 | 242 | 1.6 | 4.8 | 0.00 | 0.00 | 0.00 | 39 | 1008.1 |
| 20260508204816 | 18 | 254 | 3.2 | 9.7 | 0.00 | 0.00 | 0.00 | 36 | 1008.2 |
| 20260508203311 | 19 | 222 | 4.8 | 4.8 | 0.00 | 0.00 | 0.00 | 35 | 1008.2 |
| 20260508201808 | 17 | 256 | 3.2 | 11.3 | 0.00 | 0.00 | 0.00 | 38 | 1008.4 |
| 20260508200303 | 19 | 204 | 1.6 | 9.7 | 0.00 | 0.00 | 0.00 | 36 | 1009.0 |
| 20260508194803 | 18 | 231 | 4.8 | 6.4 | 0.00 | 0.00 | 0.00 | 36 | 1009.0 |
| 20260508193301 | 18 | 270 | 3.2 | 4.8 | 0.00 | 0.00 | 0.00 | 36 | 1009.3 |
| 20260508191757 | 17 | 226 | 3.2 | 9.7 | 0.00 | 0.00 | 0.00 | 41 | 1009.5 |
| 20260508190253 | 18 | 276 | 11.3 | 20.9 | 0.00 | 0.00 | 0.00 | 37 | 1009.9 |
| 20260508184750 | 17 | 244 | 6.4 | 11.3 | 0.00 | 0.00 | 0.00 | 37 | 1010.1 |
| 20260508183246 | 18 | 234 | 4.8 | 11.3 | 0.00 | 0.00 | 0.00 | 36 | 1010.2 |
| 20260508181741 | 17 | 282 | 4.8 | 6.4 | 0.00 | 0.00 | 0.00 | 38 | 1010.2 |
| 20260508180237 | 17 | 351 | 3.2 | 11.3 | 0.00 | 0.00 | 0.00 | 35 | 1010.4 |
| 20260508174735 | 17 | 49 | 4.8 | 4.8 | 0.00 | 0.00 | 0.00 | 39 | 1010.7 |
| 20260508173230 | 16 | 219 | 1.6 | 4.8 | 0.00 | 0.00 | 0.00 | 40 | 1011.0 |
| 20260508171726 | 16 | 278 | 3.2 | 4.8 | 0.00 | 0.00 | 0.00 | 41 | 1011.4 |
| 20260508170223 | 16 | 287 | 6.4 | 9.7 | 0.00 | 0.00 | 0.00 | 38 | 1011.7 |
| 20260508164720 | 16 | 231 | 3.2 | 3.2 | 0.00 | 0.00 | 0.00 | 40 | 1011.4 |
| 20260508163217 | 16 | 325 | 0.0 | 3.2 | 0.00 | 0.00 | 0.00 | 45 | 1011.8 |
| 20260508161713 | 15 | 242 | 4.8 | 11.3 | 0.00 | 0.00 | 0.00 | 40 | 1012.2 |
| 20260508160212 | 15 | 242 | 1.6 | 3.2 | 0.00 | 0.00 | 0.00 | 45 | 1012.1 |
| 20260508154708 | 15 | 358 | 4.8 | 12.9 | 0.00 | 0.00 | 0.00 | 42 | 1012.2 |
| 20260508153205 | 14 | 288 | 3.2 | 4.8 | 0.00 | 0.00 | 0.00 | 42 | 1012.1 |
| 20260508151706 | 14 | 211 | 1.6 | 6.4 | 0.00 | 0.00 | 0.00 | 48 | 1012.1 |
| 20260508150202 | 14 | 260 | 3.2 | 4.8 | 0.00 | 0.00 | 0.00 | 49 | 1012.6 |
| 20260508144657 | 13 | 303 | 3.2 | 4.8 | 0.00 | 0.00 | 0.00 | 47 | 1012.7 |
| 20260508143155 | 13 | 85 | 0.0 | 1.6 | 0.00 | 0.00 | 0.00 | 50 | 1012.8 |
| 20260508141656 | 12 | 289 | 0.0 | 3.2 | 0.00 | 0.00 | 0.00 | 55 | 1012.8 |
| 20260508140153 | 12 | 319 | 1.6 | 1.6 | 0.00 | 0.00 | 0.00 | 57 | 1013.2 |
| 20260508134653 | 12 | 260 | 0.0 | 1.6 | 0.00 | 0.00 | 0.00 | 62 | 1013.1 |
| 20260508133149 | 11 | 349 | 0.0 | 1.6 | 0.00 | 0.00 | 0.00 | 66 | 1013.0 |
| 20260508131645 | 10 | 208 | 0.0 | 1.6 | 0.00 | 0.00 | 0.00 | 67 | 1013.1 |
| 20260508130141 | 10 | 123 | 0.0 | 4.8 | 0.00 | 0.00 | 0.00 | 70 | 1013.1 |
| 20260508124638 | 9 | 119 | 1.6 | 4.8 | 0.00 | 0.00 | 0.00 | 70 | 1012.9 |
| 20260508123136 | 8 | 75 | 0.0 | 3.2 | 0.00 | 0.00 | 0.00 | 71 | 1012.8 |
| 20260508121633 | 8 | 118 | 3.2 | 3.2 | 0.00 | 0.00 | 0.00 | 71 | 1012.9 |
| 20260508120132 | 7 | 106 | 0.0 | 1.6 | 0.00 | 0.00 | 0.00 | 74 | 1012.7 |
| 20260508114629 | 6 | 114 | 0.0 | 1.6 | 0.00 | 0.00 | 0.00 | 89 | 1012.3 |
| 20260508113127 | 5 | 60 | 0.0 | 0.0 | 0.00 | 0.00 | 0.00 | 98 | 1012.3 |
| 20260508111622 | 3 | 92 | 0.0 | 0.0 | 0.00 | 0.00 | 0.00 | 98 | 1011.9 |
| 20260508110119 | 3 | 88 | 0.0 | 0.0 | 0.00 | 0.00 | 0.00 | 97 | 1011.9 |
| 20260508104614 | 3 | 68 | 0.0 | 0.0 | 0.00 | 0.00 | 0.00 | 97 | 1011.9 |
| 20260508103111 | 3 | 48 | 0.0 | 0.0 | 0.00 | 0.00 | 0.00 | 97 | 1012.0 |
| 20260508101609 | 3 | 14 | 0.0 | 0.0 | 0.00 | 0.00 | 0.00 | 97 | 1011.9 |
| 20260508100107 | 3 | 12 | 0.0 | 0.0 | 0.00 | 0.00 | 0.00 | 97 | 1011.8 |
| 20260508094604 | 3 | 5 | 0.0 | 0.0 | 0.00 | 0.00 | 0.00 | 96 | 1011.9 |
| 20260508093102 | 3 | 354 | 0.0 | 0.0 | 0.00 | 0.00 | 0.00 | 96 | 1011.9 |
| 20260508091559 | 3 | 14 | 0.0 | 0.0 | 0.00 | 0.00 | 0.00 | 95 | 1012.2 |
| 20260508090056 | 3 | 14 | 0.0 | 0.0 | 0.00 | 0.00 | 0.00 | 95 | 1012.0 |
| 20260508084552 | 3 | 14 | 0.0 | 0.0 | 0.00 | 0.00 | 0.00 | 94 | 1012.0 |
| 20260508083049 | 3 | 14 | 0.0 | 0.0 | 0.00 | 0.00 | 0.00 | 94 | 1012.1 |
| 20260508081546 | 4 | 15 | 0.0 | 0.0 | 0.00 | 0.00 | 0.00 | 93 | 1012.2 |
| 20260508080043 | 4 | 9 | 0.0 | 0.0 | 0.00 | 0.00 | 0.00 | 93 | 1012.2 |
| 20260508074540 | 5 | 19 | 0.0 | 0.0 | 0.00 | 0.00 | 0.00 | 94 | 1012.2 |
| 20260508073038 | 5 | 25 | 0.0 | 0.0 | 0.00 | 0.00 | 0.00 | 95 | 1012.2 |
| 20260508071534 | 5 | 24 | 0.0 | 0.0 | 0.00 | 0.00 | 0.00 | 95 | 1012.4 |
| 20260508070033 | 5 | 33 | 0.0 | 0.0 | 0.00 | 0.00 | 0.00 | 95 | 1012.3 |
| 20260508064532 | 5 | 27 | 0.0 | 0.0 | 0.00 | 0.00 | 0.00 | 95 | 1012.2 |
| 20260508063031 | 5 | 27 | 0.0 | 0.0 | 0.00 | 0.00 | 0.00 | 94 | 1012.3 |
| 20260508061528 | 5 | 31 | 0.0 | 0.0 | 0.00 | 0.00 | 0.00 | 94 | 1012.4 |
| 20260508060025 | 4 | 40 | 0.0 | 0.0 | 0.00 | 0.00 | 0.00 | 93 | 1012.7 |
| 20260508054526 | 4 | 48 | 0.0 | 0.0 | 0.00 | 0.00 | 0.00 | 92 | 1012.6 |
| 20260508053024 | 4 | 52 | 0.0 | 0.0 | 0.00 | 0.00 | 0.00 | 90 | 1012.8 |
| 20260508051520 | 5 | 53 | 0.0 | 0.0 | 0.00 | 0.00 | 0.00 | 88 | 1012.6 |
| 20260508050015 | 5 | 79 | 0.0 | 0.0 | 0.00 | 0.00 | 0.00 | 86 | 1012.4 |
| 20260508044512 | 6 | 51 | 0.0 | 0.0 | 0.00 | 0.00 | 0.00 | 80 | 1012.7 |
| 20260508043007 | 6 | 53 | 3.2 | 4.8 | 0.00 | 0.00 | 0.00 | 78 | 1012.8 |
| 20260508041504 | 8 | 232 | 1.6 | 4.8 | 0.00 | 0.00 | 0.00 | 70 | 1012.6 |
| 20260508040001 | 8 | 333 | 0.0 | 0.0 | 0.00 | 0.00 | 0.00 | 65 | 1012.6 |
| 20260508034458 | 8 | 18 | 0.0 | 0.0 | 0.00 | 0.00 | 0.00 | 64 | 1012.4 |
| 20260508032955 | 8 | 24 | 0.0 | 0.0 | 0.00 | 0.00 | 0.00 | 63 | 1012.3 |
| 20260508031453 | 9 | 164 | 0.0 | 3.2 | 0.00 | 0.00 | 0.00 | 60 | 1012.3 |
| 20260508025948 | 10 | 215 | 1.6 | 1.6 | 0.00 | 0.00 | 0.00 | 56 | 1012.8 |
| 20260508024443 | 9 | 270 | 3.2 | 4.8 | 0.00 | 0.00 | 0.00 | 56 | 1012.9 |
| 20260508022940 | 9 | 237 | 1.6 | 3.2 | 0.00 | 0.00 | 0.00 | 56 | 1012.8 |
| 20260508021435 | 9 | 153 | 0.0 | 0.0 | 0.00 | 0.00 | 0.00 | 55 | 1012.6 |
| 20260508015931 | 10 | 225 | 0.0 | 0.0 | 0.00 | 0.00 | 0.00 | 54 | 1012.7 |
| 20260508014428 | 10 | 233 | 0.0 | 0.0 | 0.00 | 0.00 | 0.00 | 52 | 1012.6 |
| 20260508012923 | 10 | 270 | 0.0 | 1.6 | 0.00 | 0.00 | 0.00 | 51 | 1012.4 |
| 20260508011421 | 10 | 324 | 0.0 | 0.0 | 0.00 | 0.00 | 0.00 | 52 | 1012.0 |
| 20260508005918 | 10 | 240 | 1.6 | 3.2 | 0.00 | 0.00 | 0.00 | 50 | 1012.0 |
| 20260508004413 | 10 | 273 | 3.2 | 3.2 | 0.00 | 0.00 | 0.00 | 49 | 1012.2 |
| 20260508002910 | 11 | 265 | 0.0 | 1.6 | 0.00 | 0.00 | 0.00 | 47 | 1012.1 |
| 20260508001411 | 11 | 291 | 3.2 | 4.8 | 0.00 | 0.00 | 0.00 | 46 | 1011.8 |